Terminal Aerodrome Forecast
Issued by NWS Hastings, NE

Home | Current Version | Previous Version | Text Only | Print | Product List | Glossary On
Versions: 1 2 3 4 5 6 7 8 9 10 11 12 13 14 15 16 17 18 19 20 21 22 23 24 25 26 27 28 29 30 31 32 33 34
000
FTUS43 KGID 291522 AAB
TAFGRI
TAF AMD
KGRI 291522Z 2915/3012 02017KT 2SM -SN BR OVC009
      TEMPO 2915/2917 1/2SM -SN FG OVC015
     FM291900 02018KT 1SM -SN BR OVC009
     FM300000 01018KT P6SM OVC035=

USA.gov is the U.S. government's official web portal to all federal, state and local government web resources and services.